Wind_Speed
9 9 9 9 9 9 10 10 11 11 12 12 12 11 12 12 13 13 13 14 14 16 16 15 15 15 15 15 15 16 15 15 14 14 14 13 13 13 13 14 13 14 14 14
11 10 10 10 10 10 11 11 11 12 13 12 12 12 12 12 13 14 14 15 15 16 16 16 16 16 16 15 15 15 15 15 15 14 14 13 13 13 14 14 14 15 15 14
11 11 11 11 11 11 11 12 11 11 12 12 12 12 11 12 13 14 15 16 16 16 16 16 15 16 16 16 16 15 15 15 15 14 14 14 14 14 15 15 15 15 15 15
12 11 12 12 11 11 11 12 12 12 12 11 11 12 11 12 14 15 15 16 16 17 17 16 15 16 17 17 16 16 16 16 15 15 15 15 15 15 15 15 16 16 16 16
12 12 12 12 11 11 11 11 11 11 11 11 11 12 13 13 15 15 16 16 17 17 17 17 17 17 17 17 17 16 16 16 16 15 15 16 16 16 16 16 16 17 17 17
12 12 12 12 12 11 11 11 11 10 10 11 10 13 15 14 16 16 17 17 18 18 17 17 17 17 17 17 17 17 17 17 17 17 16 17 17 17 16 16 16 17 17 17
13 12 13 13 13 12 12 11 11 10 10 11 12 15 16 16 17 17 17 17 17 17 17 16 17 17 17 17 17 17 17 17 17 17 17 17 17 16 16 16 16 16 16 16
13 13 13 13 13 13 12 12 11 11 11 13 15 17 17 17 17 17 17 17 17 17 16 16 16 16 16 17 16 16 16 16 16 17 17 17 16 16 16 16 16 16 16 17
13 14 14 14 14 14 13 13 13 13 13 14 14 18 18 17 17 17 17 17 18 17 17 17 17 17 17 17 17 16 16 16 16 16 16 16 16 16 16 16 16 16 16 17
15 15 15 15 15 15 14 13 14 14 14 13 14 17 18 17 18 18 18 18 18 18 18 18 18 18 18 17 17 17 16 16 16 17 17 17 17 17 16 17 17 17 17 17
16 17 16 16 16 16 15 15 15 15 15 15 16 17 18 18 19 19 19 18 18 19 19 18 18 18 18 18 18 17 17 17 17 17 17 17 17 17 17 18 18 18 17 17
17 17 17 17 16 16 17 16 16 16 16 17 18 18 19 20 20 20 20 20 19 20 19 19 19 18 18 18 18 17 17 17 17 17 17 17 17 18 18 18 18 18 18 19
18 18 18 18 17 17 18 17 17 18 19 19 19 20 19 21 21 21 20 20 20 21 20 19 19 18 18 18 17 17 17 17 18 18 18 18 18 18 18 18 19 19 19 19
19 19 19 19 19 19 19 19 19 19 20 19 19 20 20 21 22 22 21 20 21 21 21 20 19 18 18 18 18 18 18 18 18 19 19 19 19 19 19 19 19 19 19 19
21 20 21 21 20 21 21 21 21 21 21 22 21 21 20 21 22 22 21 20 21 21 21 20 20 20 19 19 19 19 19 20 20 20 19 19 19 20 20 20 19 19 18 18
22 22 23 23 22 23 23 23 23 23 22 23 22 21 21 22 23 22 21 20 21 21 21 21 21 21 20 20 19 20 20 20 20 20 20 20 20 20 20 19 19 19 18 18
22 22 23 23 23 24 24 23 24 24 24 24 24 22 22 23 23 23 22 22 22 22 22 22 22 22 21 21 21 21 21 21 20 20 20 20 21 20 20 19 19 19 19 19
24 24 24 24 24 25 23 24 24 25 24 25 25 24 24 24 24 24 24 23 23 24 23 23 23 23 22 22 22 21 22 22 21 21 20 20 20 20 20 20 20 20 20 20
26 26 26 27 27 27 25 25 25 26 26 26 27 26 25 25 25 25 25 25 25 25 24 24 24 23 23 23 23 23 22 22 21 21 21 21 21 20 20 20 21 21 21 21
27 28 28 28 29 30 28 27 26 27 28 27 27 27 26 26 26 26 26 26 26 25 25 25 25 25 24 24 24 24 23 23 22 21 21 21 21 20 20 21 21 21 21 21
26 28 29 30 31 31 29 29 28 28 28 27 27 27 27 28 27 26 26 26 26 26 26 26 26 26 26 25 25 24 24 23 23 22 22 22 22 22 22 22 22 22 22 22
27 28 29 30 32 31 29 30 30 30 29 29 29 29 28 28 28 27 27 27 27 27 27 27 27 27 26 26 26 25 25 24 24 23 23 22 22 22 22 22 22 22 22 23
29 28 29 30 31 30 30 31 31 31 31 30 30 30 30 30 30 29 28 27 27 28 28 27 27 27 27 27 26 26 25 25 24 24 24 23 23 23 23 23 23 23 23 23
29 30 30 30 30 30 30 30 30 31 31 31 31 30 30 31 30 30 29 28 28 28 28 27 27 27 26 26 26 26 26 25 25 25 24 24 24 23 23 23 23 23 23 24
30 31 31 31 30 30 30 31 31 31 31 31 32 32 31 32 31 30 30 29 29 30 29 28 28 27 27 27 26 26 26 26 25 25 25 25 25 24 23 24 24 24 24 24
29 30 30 31 31 32 32 32 32 32 32 33 33 33 32 32 32 31 31 31 30 30 30 29 29 28 28 28 27 27 26 26 26 26 25 25 25 25 24 24 24 23 23 24
Wind_Direction
268 269 269 270 268 268 268 269 273 280 282 281 283 286 288 286 286 290 293 295 296 297 299 299 300 301 302 302 302 301 298 297 299 299 297 294 291 290 288 288 284 283 284 284
267 268 270 268 265 266 265 268 272 277 280 278 280 281 285 289 289 290 293 294 296 298 299 300 300 301 303 302 303 300 297 296 297 297 296 294 291 288 287 286 285 284 285 286
266 270 267 263 262 263 267 268 269 274 283 283 283 282 281 289 293 293 294 297 297 298 300 299 299 300 302 303 301 298 297 296 295 293 293 292 290 290 287 285 285 285 284 283
264 263 264 264 264 265 265 266 269 274 281 282 282 288 287 289 291 294 296 297 298 298 300 299 298 300 303 302 300 297 296 296 293 291 291 291 290 289 288 286 286 286 284 282
264 263 263 262 264 263 264 266 269 273 279 279 283 286 287 288 290 293 298 300 301 299 299 299 297 300 303 301 298 297 296 293 291 290 291 292 291 289 287 288 288 287 285 283
261 262 262 261 261 261 263 264 267 271 276 279 279 281 283 288 291 294 297 299 300 299 299 298 299 298 300 298 296 296 295 293 292 291 291 293 293 291 289 289 289 288 285 284
262 264 263 262 260 260 259 262 266 271 277 279 276 275 281 289 293 294 295 296 297 297 297 297 298 299 299 299 297 296 294 293 292 291 290 291 291 291 289 289 289 288 286 285
265 266 265 263 261 261 260 259 258 257 261 269 272 276 284 291 292 292 293 294 295 294 295 297 298 299 301 301 299 297 297 296 293 292 291 290 290 290 289 289 288 287 286 286
258 261 260 262 264 262 258 255 255 257 260 265 268 277 282 288 292 293 293 295 297 296 296 297 296 299 300 299 298 299 300 298 295 293 291 290 290 289 288 289 288 287 287 287
255 259 258 260 263 262 260 260 259 258 260 261 264 270 280 288 292 293 293 294 296 297 297 295 294 296 297 298 298 299 299 298 297 295 291 289 289 288 290 290 289 289 289 286
256 260 262 259 262 263 262 260 261 261 261 262 263 268 281 287 291 294 293 294 295 294 294 293 294 296 298 298 298 298 298 298 297 295 292 290 288 288 290 293 290 289 287 286
253 256 260 262 263 265 267 265 261 262 262 263 267 273 278 286 289 293 293 293 294 294 295 294 294 296 298 297 296 296 296 297 297 297 294 292 289 289 290 290 290 289 287 286
255 255 257 264 264 261 263 265 264 261 262 264 266 271 276 283 288 291 292 292 292 292 294 293 293 295 297 299 297 297 297 297 297 296 294 291 290 290 291 290 289 289 286 285
256 254 254 257 260 261 263 266 266 263 262 266 268 270 274 278 285 288 290 290 290 290 291 292 293 293 295 296 296 296 296 297 297 296 295 292 289 289 290 291 289 288 287 285
258 256 256 259 263 263 263 265 266 263 263 265 270 271 274 280 283 285 287 288 287 288 289 291 293 294 295 294 292 293 296 296 296 294 293 291 289 289 290 292 290 288 287 286
256 257 257 260 263 265 264 261 263 264 265 268 271 271 272 277 281 283 284 284 285 286 288 290 292 293 294 294 293 293 294 295 296 294 291 290 290 289 290 292 290 288 286 286
259 260 260 261 264 265 266 267 266 267 269 271 272 273 273 275 278 281 281 281 283 284 286 288 290 291 291 291 293 293 294 295 295 295 291 289 289 288 288 289 290 287 286 287
260 262 263 264 264 265 268 268 269 269 270 271 272 273 273 275 277 279 281 282 283 284 285 287 289 289 289 290 291 292 294 294 294 294 293 289 288 286 286 287 289 289 288 287
260 260 262 263 264 266 266 267 269 270 269 271 272 273 273 274 277 277 279 281 282 282 283 285 287 288 289 290 290 290 292 293 293 293 293 290 289 287 285 286 286 287 287 286
260 258 259 262 264 265 267 270 272 271 271 272 273 273 274 273 274 276 279 280 280 281 282 283 285 287 288 289 289 289 290 291 293 292 291 291 290 288 287 287 286 286 286 286
263 261 260 261 263 265 268 269 271 271 273 274 275 274 274 275 276 277 279 280 280 281 282 283 285 287 288 288 288 288 288 289 291 291 290 290 290 288 287 287 286 286 285 285
264 264 264 264 264 265 268 268 268 270 271 272 273 273 273 275 277 278 279 279 280 280 280 281 283 284 286 287 287 287 287 287 288 289 289 289 289 290 287 286 286 286 285 285
261 263 265 266 267 269 269 270 271 271 270 271 272 273 273 274 275 277 278 279 279 280 281 282 283 284 284 285 286 286 286 285 286 287 288 288 289 288 287 287 286 285 286 286
263 264 264 265 266 267 267 269 269 271 272 272 271 271 272 273 275 275 276 278 279 280 281 281 282 283 284 285 285 285 284 283 284 285 286 287 288 287 286 286 287 286 286 287
264 263 264 266 268 266 265 267 268 270 271 269 268 269 270 272 273 274 275 276 278 279 280 281 281 282 283 283 283 283 283 283 284 285 285 287 288 287 288 287 287 287 285 287
265 266 267 267 267 267 267 268 269 270 270 270 269 269 270 272 273 273 274 276 278 279 279 280 280 281 282 283 284 285 284 283 283 284 285 286 288 288 289 288 288 287 287 287
Height
5853 5854 5854 5854 5855 5855 5855 5855 5855 5855 5855 5855 5854 5854 5854 5854 5854 5854 5853 5852 5852 5851 5850 5849 5848 5847 5846 5845 5844 5843 5842 5842 5841 5840 5839 5838 5838 5838 5837 5837 5837 5836 5836 5836
5851 5852 5852 5852 5853 5853 5853 5853 5853 5854 5853 5853 5852 5852 5852 5852 5852 5851 5851 5850 5849 5848 5847 5846 5845 5844 5843 5842 5841 5840 5839 5838 5838 5837 5836 5835 5835 5834 5834 5834 5833 5833 5832 5832
5848 5850 5849 5850 5850 5850 5851 5851 5851 5851 5851 5850 5850 5850 5850 5849 5849 5849 5848 5847 5846 5846 5845 5843 5842 5841 5840 5840 5838 5837 5836 5835 5834 5833 5833 5832 5831 5831 5830 5830 5830 5829 5829 5828
5846 5846 5847 5847 5847 5848 5848 5849 5849 5849 5848 5848 5849 5848 5848 5848 5847 5847 5846 5845 5844 5843 5841 5840 5839 5838 5837 5836 5835 5834 5832 5831 5830 5830 5829 5828 5828 5827 5827 5826 5826 5825 5825 5824
5843 5843 5844 5844 5845 5845 5846 5846 5847 5846 5846 5846 5846 5846 5846 5845 5845 5844 5843 5842 5841 5840 5838 5837 5836 5835 5833 5833 5831 5830 5829 5828 5827 5826 5825 5824 5823 5823 5822 5822 5822 5821 5820 5820
5840 5840 5841 5842 5842 5843 5843 5844 5844 5844 5844 5845 5845 5845 5843 5842 5842 5841 5840 5840 5838 5837 5836 5834 5833 5832 5831 5829 5828 5826 5825 5824 5823 5822 5821 5820 5819 5819 5818 5818 5817 5817 5816 5816
5837 5837 5838 5839 5839 5840 5841 5841 5842 5842 5842 5843 5843 5842 5842 5840 5839 5838 5838 5837 5835 5834 5832 5832 5830 5829 5827 5826 5824 5823 5821 5820 5819 5818 5817 5816 5815 5814 5814 5813 5813 5812 5812 5812
5833 5834 5835 5835 5836 5837 5837 5838 5840 5840 5841 5841 5840 5838 5839 5838 5837 5836 5835 5833 5832 5830 5829 5828 5827 5825 5823 5822 5820 5819 5818 5816 5815 5814 5813 5812 5811 5810 5810 5809 5809 5808 5808 5808
5830 5832 5832 5832 5833 5834 5834 5835 5836 5837 5837 5837 5837 5836 5835 5834 5834 5833 5831 5830 5828 5826 5825 5824 5823 5821 5820 5818 5817 5815 5814 5812 5811 5810 5809 5807 5807 5806 5805 5805 5804 5804 5804 5803
5826 5828 5828 5829 5830 5830 5831 5831 5832 5833 5833 5833 5834 5833 5831 5830 5830 5829 5828 5827 5825 5823 5822 5821 5819 5818 5816 5814 5812 5811 5809 5808 5807 5806 5805 5804 5803 5802 5801 5800 5800 5799 5799 5798
5822 5824 5825 5825 5825 5826 5828 5828 5828 5829 5829 5830 5830 5831 5828 5826 5826 5825 5824 5823 5821 5820 5818 5816 5815 5813 5812 5810 5808 5807 5805 5804 5803 5801 5800 5799 5798 5798 5797 5796 5795 5794 5794 5793
5818 5819 5819 5821 5822 5822 5823 5824 5824 5825 5825 5826 5825 5828 5824 5823 5821 5821 5820 5818 5817 5815 5814 5812 5811 5809 5807 5805 5804 5802 5801 5800 5798 5797 5796 5795 5794 5793 5792 5792 5791 5790 5789 5788
5813 5815 5815 5816 5819 5818 5818 5819 5820 5821 5821 5821 5821 5823 5819 5818 5817 5816 5815 5814 5813 5811 5810 5808 5806 5805 5803 5801 5800 5798 5797 5795 5794 5793 5792 5790 5789 5789 5788 5787 5786 5785 5784 5783
5808 5810 5811 5812 5812 5812 5813 5814 5815 5815 5815 5816 5816 5816 5816 5814 5813 5812 5811 5810 5808 5806 5805 5803 5802 5800 5799 5797 5796 5794 5793 5791 5790 5788 5787 5786 5785 5784 5783 5782 5781 5779 5779 5778
5803 5804 5805 5806 5807 5807 5808 5809 5809 5810 5810 5811 5811 5810 5810 5809 5807 5807 5806 5805 5803 5801 5800 5799 5797 5796 5794 5793 5791 5789 5788 5786 5785 5783 5782 5781 5780 5778 5777 5776 5775 5774 5774 5773
5797 5798 5799 5800 5801 5801 5802 5803 5803 5804 5804 5805 5805 5805 5805 5803 5802 5801 5800 5799 5798 5796 5795 5794 5792 5791 5789 5788 5786 5785 5783 5781 5780 5778 5777 5775 5774 5773 5772 5771 5770 5769 5768 5767
5791 5792 5793 5794 5795 5795 5796 5797 5797 5798 5798 5799 5799 5800 5799 5798 5796 5795 5794 5793 5792 5791 5790 5789 5787 5786 5784 5783 5781 5779 5778 5776 5774 5773 5771 5770 5769 5768 5766 5766 5765 5764 5763 5762
5785 5786 5786 5787 5789 5788 5792 5791 5791 5791 5792 5792 5792 5792 5792 5791 5791 5790 5788 5787 5787 5786 5785 5783 5782 5780 5779 5777 5776 5774 5772 5770 5769 5767 5765 5764 5763 5762 5761 5760 5759 5758 5757 5757
5778 5779 5780 5781 5781 5781 5784 5784 5784 5784 5785 5785 5785 5785 5785 5785 5784 5783 5782 5781 5780 5779 5779 5777 5776 5774 5773 5771 5770 5768 5766 5765 5763 5762 5760 5758 5757 5756 5756 5755 5754 5753 5752 5751
5771 5772 5773 5773 5774 5774 5777 5777 5777 5778 5777 5778 5778 5777 5777 5777 5777 5777 5776 5775 5774 5773 5772 5771 5770 5768 5767 5765 5763 5762 5760 5759 5757 5756 5754 5753 5752 5751 5750 5749 5748 5747 5746 5745
5762 5764 5765 5766 5766 5766 5769 5770 5770 5771 5771 5770 5770 5770 5770 5770 5770 5770 5769 5768 5767 5766 5765 5764 5763 5762 5760 5759 5757 5756 5754 5753 5751 5750 5749 5747 5746 5745 5744 5743 5742 5741 5740 5739
5755 5756 5757 5758 5758 5761 5762 5762 5763 5763 5763 5762 5762 5762 5762 5762 5762 5762 5761 5761 5760 5759 5758 5757 5756 5755 5754 5752 5750 5749 5748 5746 5745 5744 5743 5741 5740 5738 5737 5736 5735 5734 5733 5732
5747 5749 5750 5751 5753 5753 5753 5753 5754 5754 5754 5755 5755 5754 5754 5754 5754 5754 5754 5753 5752 5752 5751 5750 5749 5748 5747 5745 5743 5742 5741 5740 5738 5737 5736 5735 5734 5732 5731 5730 5728 5727 5726 5725
5740 5740 5741 5741 5743 5744 5745 5745 5745 5745 5745 5746 5746 5746 5746 5746 5746 5746 5745 5745 5744 5744 5743 5742 5741 5740 5739 5738 5736 5735 5734 5733 5732 5731 5729 5728 5727 5726 5725 5723 5722 5721 5719 5718
5732 5732 5732 5733 5735 5735 5736 5736 5736 5736 5736 5736 5736 5736 5737 5737 5737 5737 5737 5737 5736 5736 5735 5734 5734 5733 5732 5730 5729 5728 5727 5726 5725 5724 5723 5721 5720 5719 5718 5717 5715 5714 5713 5711
5723 5723 5724 5724 5726 5725 5726 5727 5727 5727 5727 5727 5727 5728 5728 5728 5728 5728 5728 5728 5728 5727 5727 5726 5725 5725 5724 5723 5722 5720 5719 5718 5717 5717 5716 5715 5714 5712 5711 5710 5709 5707 5706 5704